| time (UTC) | temp F | wind direction | speed knots | gust knots | rain 1hr in | rain 24hr in | rain mn in | humidity % | barometer mb |
| 20260510083100 | 68 | 136 | 0.0 | 4.3 | 0.00 | 0.04 | 0.00 | 94 | 1010.6 |
| 20260510082552 | 68 | 136 | 1.7 | 4.3 | 0.00 | 0.04 | 0.00 | 94 | 1010.4 |
| 20260510082053 | 68 | 136 | 1.7 | 6.1 | 0.00 | 0.04 | 0.00 | 94 | 1010.4 |
| 20260510081559 | 68 | 134 | 2.6 | 6.1 | 0.00 | 0.04 | 0.00 | 95 | 1010.5 |
| 20260510081053 | 68 | 127 | 2.6 | 6.1 | 0.00 | 0.04 | 0.00 | 93 | 1010.4 |
| 20260510080551 | 68 | 126 | 1.7 | 4.3 | 0.00 | 0.04 | 0.00 | 93 | 1010.4 |
| 20260510080055 | 68 | 127 | 1.7 | 4.3 | 0.00 | 0.04 | 0.00 | 93 | 1010.5 |
| 20260510075552 | 68 | 126 | 0.9 | 3.5 | 0.00 | 0.04 | 0.00 | 93 | 1010.5 |
| 20260510075052 | 68 | 126 | 1.7 | 2.6 | 0.00 | 0.04 | 0.00 | 94 | 1010.6 |
| 20260510074556 | 68 | 104 | 0.0 | 1.7 | 0.00 | 0.04 | 0.00 | 93 | 1010.5 |
| 20260510074052 | 68 | 0 | 0.0 | 1.7 | 0.00 | 0.04 | 0.00 | 92 | 1010.6 |
| 20260510073552 | 69 | 104 | 0.0 | 1.7 | 0.00 | 0.04 | 0.00 | 92 | 1010.7 |
| 20260510073105 | 69 | 103 | 0.0 | 2.6 | 0.00 | 0.04 | 0.00 | 92 | 1010.7 |
| 20260510072552 | 69 | 103 | 0.9 | 2.6 | 0.00 | 0.04 | 0.00 | 92 | 1010.7 |
| 20260510072052 | 69 | 103 | 1.7 | 2.6 | 0.00 | 0.04 | 0.00 | 92 | 1010.9 |
| 20260510071557 | 69 | 103 | 0.9 | 3.5 | 0.00 | 0.04 | 0.00 | 92 | 1010.8 |
| 20260510071052 | 70 | 104 | 1.7 | 6.1 | 0.00 | 0.04 | 0.00 | 92 | 1010.8 |
| 20260510070556 | 70 | 105 | 1.7 | 6.1 | 0.00 | 0.04 | 0.00 | 92 | 1011.0 |
| 20260510070053 | 70 | 101 | 2.6 | 6.1 | 0.00 | 0.04 | 0.00 | 92 | 1010.9 |
| 20260510065552 | 70 | 99 | 2.6 | 6.1 | 0.00 | 0.04 | 0.00 | 92 | 1010.9 |
| 20260510065055 | 70 | 108 | 1.7 | 7.0 | 0.00 | 0.04 | 0.00 | 92 | 1010.9 |
| 20260510064558 | 70 | 115 | 2.6 | 7.0 | 0.00 | 0.04 | 0.00 | 92 | 1010.9 |
| 20260510064054 | 70 | 110 | 3.5 | 7.0 | 0.00 | 0.04 | 0.00 | 92 | 1010.9 |
| 20260510063555 | 70 | 107 | 3.5 | 7.0 | 0.00 | 0.04 | 0.00 | 92 | 1011.0 |
| 20260510063056 | 70 | 109 | 3.5 | 7.0 | 0.00 | 0.04 | 0.00 | 92 | 1011.1 |
| 20260510062555 | 70 | 88 | 1.7 | 6.1 | 0.00 | 0.04 | 0.00 | 91 | 1011.0 |
| 20260510062054 | 70 | 88 | 2.6 | 6.1 | 0.00 | 0.04 | 0.00 | 91 | 1011.0 |
| 20260510061555 | 70 | 87 | 1.7 | 6.1 | 0.00 | 0.04 | 0.00 | 91 | 1011.0 |
| 20260510061056 | 70 | 86 | 3.5 | 6.1 | 0.00 | 0.04 | 0.00 | 92 | 1011.1 |
| 20260510060556 | 69 | 90 | 2.6 | 6.1 | 0.00 | 0.04 | 0.00 | 92 | 1011.1 |
| 20260510060058 | 69 | 87 | 2.6 | 6.1 | 0.00 | 0.04 | 0.00 | 92 | 1011.0 |
| 20260510055555 | 69 | 88 | 2.6 | 5.2 | 0.00 | 0.04 | 0.00 | 91 | 1011.1 |
| 20260510055057 | 69 | 95 | 1.7 | 5.2 | 0.00 | 0.04 | 0.00 | 90 | 1011.0 |
| 20260510054554 | 69 | 121 | 0.9 | 6.1 | 0.00 | 0.04 | 0.00 | 91 | 1010.9 |
| 20260510054053 | 69 | 121 | 1.7 | 6.1 | 0.00 | 0.04 | 0.00 | 90 | 1010.8 |
| 20260510053555 | 70 | 98 | 2.6 | 5.2 | 0.00 | 0.04 | 0.00 | 90 | 1011.0 |
| 20260510053055 | 70 | 118 | 0.9 | 4.3 | 0.00 | 0.04 | 0.00 | 90 | 1010.9 |
| 20260510052556 | 70 | 128 | 1.7 | 4.3 | 0.00 | 0.04 | 0.00 | 89 | 1010.9 |
| 20260510052055 | 70 | 126 | 1.7 | 4.3 | 0.00 | 0.04 | 0.00 | 89 | 1010.8 |
| 20260510051559 | 70 | 134 | 1.7 | 4.3 | 0.00 | 0.04 | 0.00 | 89 | 1010.8 |
| 20260510051057 | 70 | 136 | 1.7 | 3.5 | 0.00 | 0.04 | 0.00 | 88 | 1010.6 |
| 20260510050554 | 71 | 136 | 1.7 | 3.5 | 0.00 | 0.04 | 0.00 | 88 | 1010.6 |
| 20260510050058 | 71 | 137 | 1.7 | 3.5 | 0.00 | 0.04 | 0.00 | 88 | 1010.5 |
| 20260510045555 | 71 | 0 | 1.7 | 7.8 | 0.00 | 0.04 | 0.04 | 87 | 1010.3 |
| 20260510045055 | 71 | 145 | 2.6 | 7.8 | 0.00 | 0.04 | 0.04 | 88 | 1010.1 |
| 20260510044557 | 71 | 172 | 2.6 | 6.1 | 0.00 | 0.04 | 0.04 | 88 | 1010.1 |
| 20260510044054 | 71 | 166 | 2.6 | 5.2 | 0.00 | 0.04 | 0.04 | 88 | 1010.2 |
| 20260510043557 | 71 | 180 | 2.6 | 5.2 | 0.00 | 0.04 | 0.04 | 89 | 1010.2 |
| 20260510043058 | 70 | 178 | 1.7 | 3.5 | 0.00 | 0.04 | 0.04 | 89 | 1010.3 |
| 20260510042555 | 70 | 178 | 0.9 | 3.5 | 0.00 | 0.04 | 0.04 | 89 | 1010.4 |
| 20260510042054 | 70 | 178 | 0.9 | 3.5 | 0.00 | 0.04 | 0.04 | 87 | 1010.4 |
| 20260510041556 | 71 | 178 | 1.7 | 2.6 | 0.00 | 0.04 | 0.04 | 87 | 1010.4 |
| 20260510041056 | 71 | 178 | 1.7 | 3.5 | 0.00 | 0.04 | 0.04 | 87 | 1010.2 |
| 20260510040556 | 71 | 178 | 0.9 | 4.3 | 0.00 | 0.04 | 0.04 | 87 | 1010.3 |
| 20260510040058 | 71 | 179 | 2.6 | 4.3 | 0.00 | 0.04 | 0.04 | 87 | 1010.1 |
| 20260510035555 | 71 | 165 | 1.7 | 4.3 | 0.00 | 0.04 | 0.04 | 87 | 1010.2 |
| 20260510035055 | 71 | 154 | 0.0 | 2.6 | 0.00 | 0.04 | 0.04 | 86 | 1010.2 |
| 20260510034556 | 71 | 0 | 0.9 | 2.6 | 0.00 | 0.04 | 0.04 | 85 | 1010.1 |
| 20260510034055 | 71 | 154 | 0.9 | 2.6 | 0.00 | 0.04 | 0.04 | 85 | 1010.1 |
| 20260510033554 | 72 | 154 | 0.9 | 2.6 | 0.00 | 0.04 | 0.04 | 84 | 1010.0 |
| 20260510033126 | 72 | 155 | 0.9 | 1.7 | 0.00 | 0.04 | 0.04 | 84 | 1010.0 |
| 20260510032554 | 72 | 155 | 0.9 | 2.6 | 0.00 | 0.04 | 0.04 | 84 | 1010.0 |
| 20260510032055 | 73 | 155 | 0.9 | 4.3 | 0.00 | 0.04 | 0.04 | 83 | 1009.9 |
| 20260510031558 | 73 | 155 | 0.9 | 4.3 | 0.00 | 0.04 | 0.04 | 83 | 1009.8 |
| 20260510031054 | 73 | 153 | 1.7 | 4.3 | 0.00 | 0.04 | 0.04 | 83 | 1009.7 |
| 20260510030554 | 73 | 128 | 1.7 | 4.3 | 0.00 | 0.04 | 0.04 | 82 | 1009.8 |
| 20260510030059 | 74 | 151 | 1.7 | 4.3 | 0.00 | 0.04 | 0.04 | 82 | 1009.7 |
| 20260510025554 | 74 | 152 | 1.7 | 5.2 | 0.00 | 0.04 | 0.04 | 81 | 1009.6 |
| 20260510025054 | 74 | 143 | 1.7 | 7.0 | 0.00 | 0.04 | 0.04 | 80 | 1009.6 |
| 20260510024605 | 75 | 117 | 1.7 | 7.0 | 0.00 | 0.04 | 0.04 | 80 | 1009.5 |
| 20260510024058 | 75 | 141 | 3.5 | 6.1 | 0.00 | 0.04 | 0.04 | 79 | 1009.4 |
| 20260510023554 | 76 | 115 | 1.7 | 3.5 | 0.00 | 0.04 | 0.04 | 78 | 1009.2 |
| 20260510023057 | 76 | 136 | 0.9 | 4.3 | 0.00 | 0.04 | 0.04 | 77 | 1009.0 |
| 20260510022554 | 77 | 159 | 0.9 | 5.2 | 0.00 | 0.04 | 0.04 | 76 | 1008.7 |
| 20260510022055 | 77 | 171 | 1.7 | 5.2 | 0.00 | 0.04 | 0.04 | 75 | 1008.6 |
| 20260510021601 | 77 | 196 | 1.7 | 8.7 | 0.00 | 0.04 | 0.04 | 75 | 1008.4 |
| 20260510021054 | 77 | 173 | 2.6 | 8.7 | 0.00 | 0.04 | 0.04 | 74 | 1008.3 |
| 20260510020555 | 78 | 165 | 3.5 | 8.7 | 0.00 | 0.04 | 0.04 | 74 | 1008.4 |
| 20260510020112 | 78 | 152 | 3.5 | 9.6 | 0.00 | 0.04 | 0.04 | 74 | 1008.3 |
| 20260510015555 | 78 | 180 | 3.5 | 9.6 | 0.00 | 0.04 | 0.04 | 73 | 1008.1 |
| 20260510015055 | 78 | 150 | 5.2 | 11.3 | 0.00 | 0.04 | 0.04 | 73 | 1008.1 |
| 20260510014603 | 78 | 183 | 5.2 | 13.0 | 0.00 | 0.04 | 0.04 | 72 | 1008.0 |
| 20260510014055 | 78 | 195 | 6.1 | 13.0 | 0.00 | 0.04 | 0.04 | 72 | 1007.9 |
| 20260510013556 | 79 | 194 | 5.2 | 13.0 | 0.00 | 0.04 | 0.04 | 73 | 1008.2 |
| 20260510013106 | 79 | 181 | 4.3 | 7.8 | 0.00 | 0.04 | 0.04 | 73 | 1008.1 |
| 20260510012558 | 79 | 186 | 4.3 | 8.7 | 0.00 | 0.04 | 0.04 | 73 | 1008.1 |
| 20260510012054 | 80 | 204 | 4.3 | 9.6 | 0.00 | 0.04 | 0.04 | 73 | 1008.2 |
| 20260510011606 | 80 | 170 | 5.2 | 10.4 | 0.00 | 0.04 | 0.04 | 72 | 1008.2 |
| 20260510011055 | 80 | 174 | 5.2 | 10.4 | 0.00 | 0.04 | 0.04 | 72 | 1008.4 |
| 20260510010555 | 81 | 204 | 3.5 | 8.7 | 0.00 | 0.04 | 0.04 | 72 | 1008.3 |
| 20260510010056 | 81 | 170 | 3.5 | 8.7 | 0.00 | 0.04 | 0.04 | 72 | 1008.4 |
| 20260510005555 | 81 | 123 | 2.6 | 8.7 | 0.00 | 0.04 | 0.04 | 71 | 1008.4 |
| 20260510005054 | 82 | 173 | 3.5 | 10.4 | 0.00 | 0.04 | 0.04 | 70 | 1008.4 |
| 20260510004600 | 82 | 166 | 2.6 | 13.9 | 0.00 | 0.04 | 0.04 | 69 | 1008.4 |
| 20260510004055 | 83 | 156 | 4.3 | 13.9 | 0.00 | 0.04 | 0.04 | 68 | 1008.4 |
| 20260510003555 | 83 | 171 | 5.2 | 13.0 | 0.00 | 0.04 | 0.04 | 68 | 1008.3 |
| 20260510003106 | 84 | 162 | 4.3 | 13.0 | 0.00 | 0.04 | 0.04 | 67 | 1008.2 |
| 20260510002556 | 84 | 195 | 4.3 | 14.8 | 0.00 | 0.04 | 0.04 | 67 | 1008.1 |
| 20260510002052 | 85 | 167 | 5.2 | 14.8 | 0.00 | 0.04 | 0.04 | 66 | 1008.1 |
| 20260510001602 | 86 | 130 | 5.2 | 14.8 | 0.00 | 0.04 | 0.04 | 64 | 1008.0 |
| 20260510001052 | 87 | 173 | 7.0 | 14.8 | 0.00 | 0.04 | 0.04 | 62 | 1007.8 |
| 20260510000552 | 88 | 142 | 4.3 | 9.6 | 0.00 | 0.04 | 0.04 | 60 | 1007.6 |
| 20260510000058 | 89 | 123 | 5.2 | 9.6 | 0.00 | 0.04 | 0.04 | 60 | 1007.6 |
| 20260509235553 | 89 | 153 | 4.3 | 9.6 | 0.00 | 0.04 | 0.04 | 60 | 1007.4 |
| 20260509235053 | 89 | 147 | 2.6 | 8.7 | 0.00 | 0.04 | 0.04 | 60 | 1007.4 |
| 20260509234614 | 89 | 150 | 3.5 | 7.8 | 0.00 | 0.04 | 0.04 | 61 | 1007.3 |
| 20260509234052 | 88 | 138 | 2.6 | 6.1 | 0.00 | 0.04 | 0.04 | 61 | 1007.3 |
| 20260509233556 | 87 | 105 | 1.7 | 6.1 | 0.00 | 0.04 | 0.04 | 62 | 1007.3 |
| 20260509233058 | 87 | 116 | 2.6 | 6.1 | 0.00 | 0.04 | 0.04 | 61 | 1007.3 |
| 20260509232552 | 86 | 123 | 1.7 | 7.0 | 0.00 | 0.04 | 0.04 | 63 | 1007.4 |
| 20260509232052 | 86 | 124 | 2.6 | 8.7 | 0.00 | 0.04 | 0.04 | 63 | 1007.4 |
| 20260509231601 | 86 | 132 | 4.3 | 8.7 | 0.00 | 0.04 | 0.04 | 61 | 1007.4 |
| 20260509231054 | 87 | 144 | 4.3 | 7.0 | 0.00 | 0.04 | 0.04 | 62 | 1007.3 |
| 20260509230551 | 87 | 137 | 1.7 | 7.0 | 0.00 | 0.04 | 0.04 | 61 | 1007.4 |
| 20260509225554 | 88 | 126 | 3.5 | 7.0 | 0.00 | 0.04 | 0.04 | 59 | 1007.3 |
| 20260509225051 | 89 | 138 | 2.6 | 6.1 | 0.00 | 0.04 | 0.04 | 58 | 1007.3 |
| 20260509224602 | 89 | 131 | 1.7 | 6.1 | 0.00 | 0.04 | 0.04 | 59 | 1007.3 |
| 20260509224052 | 88 | 58 | 1.7 | 3.5 | 0.00 | 0.04 | 0.04 | 59 | 1007.3 |
| 20260509223552 | 88 | 57 | 1.7 | 3.5 | 0.00 | 0.04 | 0.04 | 57 | 1007.4 |
| 20260509223102 | 88 | 57 | 1.7 | 4.3 | 0.00 | 0.04 | 0.04 | 58 | 1007.5 |
| 20260509222556 | 88 | 57 | 1.7 | 4.3 | 0.00 | 0.04 | 0.04 | 58 | 1007.5 |
| 20260509222052 | 88 | 57 | 2.6 | 4.3 | 0.00 | 0.04 | 0.04 | 56 | 1007.3 |
| 20260509221555 | 88 | 55 | 1.7 | 4.3 | 0.00 | 0.04 | 0.04 | 56 | 1007.3 |
| 20260509221052 | 89 | 54 | 2.6 | 4.3 | 0.00 | 0.04 | 0.04 | 54 | 1007.4 |
| 20260509220552 | 89 | 51 | 1.7 | 5.2 | 0.00 | 0.04 | 0.04 | 54 | 1007.3 |
| 20260509220058 | 90 | 0 | 1.7 | 5.2 | 0.00 | 0.04 | 0.04 | 53 | 1007.4 |
| 20260509215555 | 91 | 40 | 1.7 | 5.2 | 0.00 | 0.04 | 0.04 | 51 | 1007.5 |
| 20260509215052 | 91 | 5 | 1.7 | 5.2 | 0.00 | 0.04 | 0.04 | 51 | 1007.4 |
| 20260509214555 | 92 | 0 | 0.9 | 7.0 | 0.00 | 0.04 | 0.04 | 50 | 1007.4 |
| 20260509214056 | 93 | 9 | 1.7 | 7.0 | 0.00 | 0.04 | 0.04 | 49 | 1007.4 |
| 20260509213552 | 94 | 313 | 3.5 | 7.0 | 0.00 | 0.04 | 0.04 | 49 | 1007.4 |
| 20260509213059 | 94 | 298 | 0.0 | 6.1 | 0.00 | 0.04 | 0.04 | 50 | 1007.4 |
| 20260509212555 | 93 | 0 | 1.7 | 6.1 | 0.00 | 0.04 | 0.04 | 46 | 1007.4 |
| 20260509212054 | 93 | 0 | 1.7 | 7.8 | 0.00 | 0.04 | 0.04 | 47 | 1007.4 |
| 20260509211557 | 92 | 296 | 4.3 | 7.8 | 0.00 | 0.04 | 0.04 | 50 | 1007.5 |
| 20260509211052 | 91 | 11 | 3.5 | 7.0 | 0.00 | 0.04 | 0.04 | 53 | 1007.5 |
| 20260509210552 | 90 | 319 | 1.7 | 4.3 | 0.00 | 0.04 | 0.04 | 55 | 1007.4 |
| 20260509210059 | 90 | 304 | 0.9 | 7.0 | 0.00 | 0.04 | 0.04 | 52 | 1007.5 |
| 20260509205551 | 90 | 0 | 0.9 | 7.0 | 0.00 | 0.04 | 0.04 | 49 | 1007.6 |
| 20260509205054 | 90 | 48 | 0.9 | 5.2 | 0.00 | 0.04 | 0.04 | 54 | 1007.7 |
| 20260509204601 | 90 | 33 | 2.6 | 5.2 | 0.00 | 0.04 | 0.04 | 52 | 1007.7 |
| 20260509204055 | 91 | 27 | 0.9 | 5.2 | 0.00 | 0.04 | 0.04 | 52 | 1007.8 |
| 20260509203555 | 92 | 0 | 0.9 | 7.0 | 0.00 | 0.04 | 0.04 | 51 | 1007.8 |
| 20260509203113 | 91 | 26 | 2.6 | 7.0 | 0.00 | 0.04 | 0.04 | 54 | 1007.9 |
| 20260509202552 | 91 | 318 | 1.7 | 7.0 | 0.00 | 0.04 | 0.04 | 57 | 1008.0 |
| 20260509202054 | 91 | 218 | 3.5 | 7.8 | 0.00 | 0.04 | 0.04 | 53 | 1008.0 |
| 20260509201553 | 90 | 241 | 2.6 | 7.8 | 0.00 | 0.04 | 0.04 | 52 | 1008.0 |
| 20260509201054 | 90 | 236 | 3.5 | 7.0 | 0.00 | 0.04 | 0.04 | 54 | 1008.1 |
| 20260509200551 | 90 | 63 | 0.0 | 6.1 | 0.00 | 0.04 | 0.04 | 54 | 1008.2 |
| 20260509200057 | 90 | 56 | 1.7 | 7.8 | 0.00 | 0.04 | 0.04 | 54 | 1008.2 |
| 20260509195555 | 90 | 0 | 2.6 | 9.6 | 0.00 | 0.04 | 0.04 | 53 | 1008.4 |
| 20260509195054 | 90 | 269 | 5.2 | 9.6 | 0.00 | 0.04 | 0.04 | 54 | 1008.5 |
| 20260509194555 | 90 | 288 | 2.6 | 7.8 | 0.00 | 0.04 | 0.04 | 54 | 1008.5 |
| 20260509194055 | 90 | 250 | 3.5 | 11.3 | 0.00 | 0.04 | 0.04 | 52 | 1008.5 |
| 20260509193555 | 91 | 227 | 2.6 | 11.3 | 0.00 | 0.04 | 0.04 | 54 | 1008.5 |
| 20260509193100 | 91 | 284 | 3.5 | 11.3 | 0.00 | 0.04 | 0.04 | 54 | 1008.6 |
| 20260509192552 | 91 | 207 | 3.5 | 7.8 | 0.00 | 0.04 | 0.04 | 54 | 1008.6 |
| 20260509192054 | 90 | 225 | 3.5 | 7.8 | 0.00 | 0.04 | 0.04 | 53 | 1008.7 |
| 20260509191554 | 90 | 0 | 2.6 | 7.8 | 0.00 | 0.04 | 0.04 | 53 | 1008.7 |
| 20260509191055 | 89 | 71 | 0.9 | 7.8 | 0.00 | 0.04 | 0.04 | 54 | 1008.8 |
| 20260509190556 | 90 | 281 | 0.9 | 4.3 | 0.00 | 0.04 | 0.04 | 52 | 1008.9 |
| 20260509190057 | 90 | 52 | 1.7 | 7.8 | 0.00 | 0.04 | 0.04 | 53 | 1009.0 |
| 20260509185558 | 89 | 27 | 2.6 | 7.8 | 0.00 | 0.04 | 0.04 | 56 | 1009.0 |
| 20260509185054 | 89 | 282 | 2.6 | 7.8 | 0.00 | 0.04 | 0.04 | 57 | 1009.0 |
| 20260509184556 | 89 | 5 | 1.7 | 6.1 | 0.00 | 0.04 | 0.04 | 54 | 1008.9 |
| 20260509184055 | 89 | 299 | 2.6 | 6.1 | 0.00 | 0.04 | 0.04 | 56 | 1009.1 |
| 20260509183552 | 88 | 317 | 0.9 | 7.0 | 0.00 | 0.04 | 0.04 | 58 | 1009.3 |
| 20260509183104 | 88 | 32 | 1.7 | 7.0 | 0.00 | 0.04 | 0.04 | 53 | 1009.4 |
| 20260509182552 | 89 | 269 | 1.7 | 5.2 | 0.00 | 0.04 | 0.04 | 60 | 1009.4 |
| 20260509182052 | 88 | 0 | 0.9 | 3.5 | 0.00 | 0.04 | 0.04 | 56 | 1009.4 |
| 20260509181610 | 87 | 37 | 1.7 | 5.2 | 0.00 | 0.04 | 0.04 | 57 | 1009.5 |
| 20260509181051 | 87 | 74 | 0.9 | 5.2 | 0.00 | 0.04 | 0.04 | 58 | 1009.6 |
| 20260509180555 | 87 | 72 | 1.7 | 5.2 | 0.00 | 0.04 | 0.04 | 58 | 1009.7 |
| 20260509180117 | 87 | 23 | 0.0 | 4.3 | 0.00 | 0.04 | 0.04 | 58 | 1009.7 |
| 20260509175552 | 86 | 69 | 0.9 | 3.5 | 0.00 | 0.04 | 0.04 | 58 | 1009.8 |
| 20260509175057 | 86 | 209 | 0.9 | 7.0 | 0.00 | 0.04 | 0.04 | 58 | 1010.0 |
| 20260509174554 | 86 | 258 | 1.7 | 7.0 | 0.00 | 0.04 | 0.04 | 58 | 1010.0 |
| 20260509174052 | 86 | 251 | 3.5 | 6.1 | 0.00 | 0.04 | 0.04 | 62 | 1010.0 |
| 20260509173552 | 86 | 311 | 1.7 | 4.3 | 0.00 | 0.04 | 0.04 | 61 | 1010.2 |
| 20260509173109 | 85 | 0 | 0.0 | 6.1 | 0.00 | 0.04 | 0.04 | 63 | 1010.2 |
| 20260509172556 | 85 | 267 | 2.6 | 6.1 | 0.00 | 0.04 | 0.04 | 64 | 1010.3 |
| 20260509172055 | 86 | 261 | 1.7 | 7.0 | 0.00 | 0.04 | 0.04 | 64 | 1010.1 |
| 20260509171555 | 85 | 314 | 0.9 | 8.7 | 0.00 | 0.04 | 0.04 | 65 | 1010.2 |
| 20260509171055 | 85 | 236 | 3.5 | 8.7 | 0.00 | 0.04 | 0.04 | 62 | 1010.2 |
| 20260509170554 | 85 | 292 | 3.5 | 8.7 | 0.00 | 0.04 | 0.04 | 64 | 1010.2 |
| 20260509170057 | 85 | 297 | 2.6 | 7.8 | 0.00 | 0.04 | 0.04 | 66 | 1010.1 |
| 20260509165552 | 85 | 307 | 2.6 | 7.8 | 0.00 | 0.04 | 0.04 | 67 | 1010.1 |
| 20260509165051 | 85 | 319 | 0.9 | 7.0 | 0.00 | 0.04 | 0.04 | 64 | 1010.1 |
| 20260509164555 | 85 | 319 | 1.7 | 5.2 | 0.00 | 0.04 | 0.04 | 63 | 1010.2 |
| 20260509164052 | 85 | 319 | 1.7 | 5.2 | 0.00 | 0.04 | 0.04 | 68 | 1010.2 |
| 20260509163552 | 85 | 5 | 1.7 | 5.2 | 0.00 | 0.04 | 0.04 | 69 | 1010.0 |
| 20260509163055 | 84 | 87 | 0.9 | 2.6 | 0.00 | 0.04 | 0.04 | 69 | 1009.8 |
| 20260509162551 | 83 | 0 | 0.0 | 3.5 | 0.00 | 0.04 | 0.04 | 70 | 1009.7 |
| 20260509162050 | 83 | 0 | 0.9 | 4.3 | 0.00 | 0.04 | 0.04 | 69 | 1009.4 |
| 20260509161602 | 82 | 249 | 0.0 | 5.2 | 0.00 | 0.04 | 0.04 | 68 | 1009.4 |
| 20260509161051 | 82 | 250 | 1.7 | 8.7 | 0.00 | 0.04 | 0.04 | 70 | 1009.6 |
| 20260509160555 | 82 | 275 | 0.0 | 8.7 | 0.00 | 0.04 | 0.04 | 71 | 1009.6 |
| 20260509160058 | 83 | 277 | 5.2 | 8.7 | 0.00 | 0.04 | 0.04 | 69 | 1009.7 |
| 20260509155551 | 83 | 240 | 2.6 | 8.7 | 0.00 | 0.04 | 0.04 | 71 | 1009.4 |
| 20260509155056 | 82 | 288 | 2.6 | 9.6 | 0.00 | 0.04 | 0.04 | 73 | 1009.3 |
| 20260509154612 | 82 | 247 | 3.5 | 9.6 | 0.00 | 0.04 | 0.04 | 72 | 1009.6 |
| 20260509154058 | 81 | 236 | 5.2 | 8.7 | 0.00 | 0.04 | 0.04 | 75 | 1009.7 |
| 20260509153559 | 80 | 247 | 3.5 | 8.7 | 0.00 | 0.04 | 0.04 | 81 | 1009.6 |
| 20260509153110 | 79 | 213 | 4.3 | 8.7 | 0.00 | 0.04 | 0.04 | 80 | 1009.7 |
| 20260509152555 | 79 | 234 | 1.7 | 7.0 | 0.00 | 0.04 | 0.04 | 83 | 1009.7 |
| 20260509152059 | 79 | 226 | 2.6 | 7.8 | 0.00 | 0.04 | 0.04 | 85 | 1009.9 |
| 20260509151607 | 78 | 223 | 3.5 | 7.8 | 0.00 | 0.04 | 0.04 | 85 | 1009.6 |
| 20260509151056 | 77 | 178 | 4.3 | 7.8 | 0.00 | 0.04 | 0.04 | 85 | 1009.4 |
| 20260509150600 | 77 | 200 | 3.5 | 7.8 | 0.00 | 0.04 | 0.04 | 86 | 1009.6 |
| 20260509150059 | 77 | 233 | 4.3 | 8.7 | 0.00 | 0.04 | 0.04 | 87 | 1009.8 |
| 20260509145557 | 77 | 213 | 5.2 | 8.7 | 0.00 | 0.04 | 0.04 | 87 | 1009.7 |
| 20260509145056 | 77 | 204 | 4.3 | 7.8 | 0.00 | 0.04 | 0.04 | 89 | 1009.5 |
| 20260509144557 | 77 | 200 | 3.5 | 6.1 | 0.00 | 0.04 | 0.04 | 89 | 1009.7 |
| 20260509144056 | 76 | 221 | 1.7 | 6.1 | 0.00 | 0.04 | 0.04 | 89 | 1010.1 |
| 20260509143556 | 76 | 221 | 2.6 | 6.1 | 0.00 | 0.04 | 0.04 | 90 | 1010.2 |
| 20260509143109 | 76 | 254 | 1.7 | 5.2 | 0.00 | 0.04 | 0.04 | 90 | 1010.3 |
| 20260509142556 | 76 | 262 | 1.7 | 3.5 | 0.00 | 0.04 | 0.04 | 90 | 1010.2 |
| 20260509142056 | 76 | 261 | 1.7 | 3.5 | 0.00 | 0.04 | 0.04 | 89 | 1010.3 |
| 20260509141559 | 76 | 0 | 0.9 | 1.7 | 0.00 | 0.04 | 0.04 | 90 | 1010.2 |
| 20260509141057 | 76 | 0 | 0.0 | 1.7 | 0.00 | 0.04 | 0.04 | 89 | 1010.2 |
| 20260509140556 | 76 | 0 | 0.0 | 1.7 | 0.00 | 0.04 | 0.04 | 90 | 1010.3 |
| 20260509140058 | 76 | 0 | 0.0 | 1.7 | 0.00 | 0.04 | 0.04 | 91 | 1010.1 |
| 20260509135559 | 76 | 0 | 0.9 | 1.7 | 0.00 | 0.04 | 0.04 | 91 | 1010.1 |
| 20260509135055 | 75 | 0 | 0.0 | 2.6 | 0.00 | 0.04 | 0.04 | 92 | 1010.2 |
| 20260509134557 | 75 | 0 | 0.0 | 2.6 | 0.00 | 0.04 | 0.04 | 92 | 1010.4 |
| 20260509134056 | 75 | 0 | 0.9 | 2.6 | 0.00 | 0.04 | 0.04 | 93 | 1010.3 |
| 20260509133557 | 75 | 0 | 0.0 | 2.6 | 0.00 | 0.04 | 0.04 | 93 | 1010.2 |
| 20260509133107 | 75 | 0 | 0.9 | 2.6 | 0.00 | 0.04 | 0.04 | 93 | 1010.2 |
| 20260509132557 | 74 | 261 | 0.0 | 2.6 | 0.00 | 0.04 | 0.04 | 92 | 1010.1 |
| 20260509132056 | 74 | 0 | 0.0 | 3.5 | 0.00 | 0.04 | 0.04 | 92 | 1009.8 |
| 20260509131556 | 74 | 261 | 1.7 | 4.3 | 0.00 | 0.04 | 0.04 | 91 | 1009.9 |
| 20260509131056 | 74 | 0 | 0.9 | 7.0 | 0.00 | 0.04 | 0.04 | 91 | 1009.8 |
| 20260509130556 | 74 | 315 | 3.5 | 8.7 | 0.00 | 0.04 | 0.04 | 91 | 1009.8 |
| 20260509130115 | 74 | 297 | 2.6 | 12.2 | 0.00 | 0.04 | 0.04 | 91 | 1010.0 |
| 20260509125557 | 75 | 319 | 6.1 | 13.0 | 0.00 | 0.04 | 0.04 | 91 | 1009.9 |
| 20260509125056 | 75 | 10 | 7.0 | 13.0 | 0.00 | 0.04 | 0.04 | 90 | 1009.9 |
| 20260509124559 | 74 | 319 | 4.3 | 8.7 | 0.00 | 0.04 | 0.04 | 89 | 1009.7 |
| 20260509124056 | 74 | 360 | 2.6 | 20.0 | 0.00 | 0.04 | 0.04 | 91 | 1009.6 |
| 20260509123559 | 74 | 239 | 10.4 | 20.0 | 0.00 | 0.04 | 0.04 | 93 | 1009.8 |
| 20260509123055 | 74 | 299 | 9.6 | 15.6 | 0.01 | 0.04 | 0.04 | 92 | 1009.6 |
| 20260509122556 | 74 | 296 | 4.3 | 19.1 | 0.01 | 0.04 | 0.04 | 92 | 1009.6 |
| 20260509122056 | 74 | 214 | 5.2 | 26.9 | 0.01 | 0.04 | 0.04 | 92 | 1008.6 |
| 20260509121555 | 74 | 169 | 13.9 | 30.4 | 0.02 | 0.04 | 0.04 | 92 | 1007.5 |
| 20260509121059 | 73 | 170 | 13.9 | 30.4 | 0.02 | 0.04 | 0.04 | 94 | 1006.5 |
| 20260509120556 | 73 | 123 | 18.2 | 29.5 | 0.03 | 0.04 | 0.04 | 96 | 1006.0 |
| 20260509120100 | 73 | 170 | 13.0 | 23.5 | 0.03 | 0.04 | 0.04 | 96 | 1006.4 |
| 20260509115555 | 73 | 130 | 10.4 | 26.1 | 0.03 | 0.04 | 0.04 | 96 | 1007.1 |
| 20260509115055 | 73 | 126 | 14.8 | 26.1 | 0.03 | 0.04 | 0.04 | 97 | 1006.8 |
| 20260509114558 | 73 | 146 | 13.0 | 20.0 | 0.04 | 0.04 | 0.04 | 97 | 1007.5 |
| 20260509114101 | 73 | 135 | 11.3 | 20.0 | 0.04 | 0.04 | 0.04 | 97 | 1008.0 |
| 20260509113600 | 73 | 128 | 10.4 | 18.2 | 0.04 | 0.04 | 0.04 | 97 | 1009.3 |
| 20260509113054 | 73 | 146 | 4.3 | 10.4 | 0.03 | 0.03 | 0.03 | 97 | 1010.2 |
| 20260509112556 | 74 | 156 | 3.5 | 10.4 | 0.03 | 0.03 | 0.03 | 97 | 1010.4 |
| 20260509112056 | 74 | 171 | 5.2 | 9.6 | 0.03 | 0.03 | 0.03 | 97 | 1010.5 |
| 20260509111554 | 74 | 159 | 4.3 | 9.6 | 0.02 | 0.02 | 0.02 | 97 | 1010.7 |
| 20260509111056 | 74 | 121 | 3.5 | 9.6 | 0.02 | 0.02 | 0.02 | 97 | 1010.7 |
| 20260509110556 | 74 | 157 | 4.3 | 7.8 | 0.01 | 0.01 | 0.01 | 97 | 1010.3 |
| 20260509110058 | 74 | 148 | 1.7 | 8.7 | 0.01 | 0.01 | 0.01 | 97 | 1010.2 |
| 20260509105556 | 74 | 203 | 4.3 | 8.7 | 0.01 | 0.01 | 0.01 | 97 | 1010.2 |
| 20260509105056 | 74 | 153 | 0.9 | 8.7 | 0.01 | 0.01 | 0.01 | 97 | 1010.0 |
| 20260509104608 | 74 | 96 | 1.7 | 8.7 | 0.00 | 0.00 | 0.00 | 97 | 1009.6 |
| 20260509104101 | 74 | 142 | 5.2 | 7.8 | 0.00 | 0.00 | 0.00 | 97 | 1008.8 |
| 20260509103555 | 74 | 182 | 2.6 | 6.1 | 0.00 | 0.00 | 0.00 | 97 | 1009.1 |
| 20260509103110 | 74 | 185 | 1.7 | 6.1 | 0.00 | 0.00 | 0.00 | 97 | 1009.4 |
| 20260509102558 | 74 | 165 | 3.5 | 6.1 | 0.00 | 0.00 | 0.00 | 97 | 1009.1 |
| 20260509102057 | 74 | 173 | 1.7 | 4.3 | 0.00 | 0.00 | 0.00 | 97 | 1009.4 |
| 20260509101556 | 74 | 173 | 0.9 | 5.2 | 0.00 | 0.00 | 0.00 | 97 | 1009.4 |
| 20260509101055 | 74 | 0 | 0.9 | 6.1 | 0.00 | 0.00 | 0.00 | 97 | 1009.4 |
| 20260509100556 | 74 | 173 | 1.7 | 6.1 | 0.00 | 0.00 | 0.00 | 97 | 1009.3 |
| 20260509100055 | 74 | 141 | 1.7 | 5.2 | 0.00 | 0.00 | 0.00 | 97 | 1009.3 |
| 20260509095557 | 74 | 102 | 1.7 | 5.2 | 0.00 | 0.00 | 0.00 | 97 | 1009.1 |
| 20260509095058 | 74 | 101 | 1.7 | 5.2 | 0.00 | 0.00 | 0.00 | 97 | 1008.8 |
| 20260509094623 | 74 | 98 | 0.9 | 3.5 | 0.00 | 0.00 | 0.00 | 97 | 1008.9 |
| 20260509094056 | 74 | 0 | 0.9 | 3.5 | 0.00 | 0.00 | 0.00 | 97 | 1009.0 |
| 20260509093556 | 73 | 98 | 0.9 | 3.5 | 0.00 | 0.00 | 0.00 | 97 | 1008.9 |
| 20260509093056 | 73 | 0 | 1.7 | 3.5 | 0.00 | 0.00 | 0.00 | 97 | 1008.9 |
| 20260509092555 | 74 | 98 | 1.7 | 5.2 | 0.00 | 0.00 | 0.00 | 97 | 1008.9 |
| 20260509092056 | 74 | 98 | 1.7 | 5.2 | 0.00 | 0.00 | 0.00 | 97 | 1009.0 |
| 20260509091556 | 74 | 0 | 1.7 | 5.2 | 0.00 | 0.00 | 0.00 | 97 | 1008.7 |
| 20260509091056 | 74 | 98 | 1.7 | 5.2 | 0.00 | 0.00 | 0.00 | 97 | 1008.6 |
| 20260509090556 | 74 | 96 | 0.9 | 3.5 | 0.00 | 0.00 | 0.00 | 97 | 1008.8 |
| 20260509090059 | 74 | 96 | 0.9 | 2.6 | 0.00 | 0.00 | 0.00 | 97 | 1008.8 |
| 20260509085555 | 74 | 96 | 0.0 | 0.0 | 0.00 | 0.00 | 0.00 | 97 | 1009.0 |
| 20260509085056 | 74 | 0 | 0.0 | 2.6 | 0.00 | 0.00 | 0.00 | 97 | 1008.9 |
| 20260509084607 | 73 | 0 | 0.0 | 3.5 | 0.00 | 0.00 | 0.00 | 97 | 1008.6 |
| 20260509084056 | 73 | 96 | 1.7 | 3.5 | 0.00 | 0.00 | 0.00 | 96 | 1008.3 |
| 20260509083557 | 73 | 96 | 1.7 | 3.5 | 0.00 | 0.00 | 0.00 | 96 | 1008.4 |